STARLINK-31388, 59565

Orbit data source: Space-Track

STARLINK-31388, 59565 is a payload satellite owned by SpaceX/Seattle (US) in LEO that was launched on Tue, 23 Apr 2024 UTC via an FALCON 9 launch vehicle from the Air Force Eastern Test Range (AFETR). Payload-class satellites include a variety of spacecraft equipped with specific instruments for various scientific and technological missions. These include communications satellites like Starlink; space stations such as the ISS; scientific satellites like the Hubble; Earth observation satellites from companies like Planet Labs, Umbra, and HawkEye 360; GPS; miniature CubeSats for education and research; and military/defense satellites.

Loading next visibility...
Identifier
59565, 2024-076B
Orbit
LEO
Country
Flag of USUS
Related business
Manufacturer
SpaceX/Seattle
Mission
Operational Commercial Communications
Bus & Motor
STARLINK V2M, Unknown motor
Mass
730 kg wet, ~700 kg dry
Launch date (UTC)
2024-04-23 (2 years ago)
Launch vehicle
FALCON 9
Launch site
Air Force Eastern Test Range (AFETR)
Object type
Payload
Rocket body
Debris
Shape & HBR
Box + 2 Pan, 17.7 m
Radar Cross Section
33.884 m², Large (>1 m²)

Expand to show TLE details & history
Last TLE update: 9 hours ago

TLE from 9 hours ago
0 STARLINK-31388
1 59565U 24076B   25296.66240454  .00010494  00000-0  39023-3 0  9992
2 59565  43.0010  63.0917 0001083 274.3058  85.7670 15.27589552 85541
Epoch: 2025-10-23T15:53Z
TLE epoch observation values (Epoch: 2025-10-23T15:53:51.752Z)
Latitude
-0°
Longitude
152.30763°
Altitude
482.741 km
Speed
7.626 km/s
True Right ascension
04h 12m 22s
True Declination
0° 00' 00"
Sunlit
Object was in full shadow at epoch
Visualization orbit readout
Latitude
Unknown
Longitude
Unknown
Altitude
Unknown
Speed
Unknown
Apparent Right ascension
Unknown
Apparent Declination
Unknown
Sunlit
N/A
Visualization observer readout
Local Sidereal Time
19:37:42
Azimuth
Unknown
Elevation
Unknown
Doppler factor
Unknown
Orbital elements
Apogee altitude
485.709 km
Perigee altitude
484.222 km
Semi-major axis
6,863.103 km
Eccentricity
0.00011
Inclination
43.001°
RAAN
63.0917°
Arg. of periapsis
274.3058°
True anomaly
85.77938°
Mean anomaly
85.767°
Eccentric anomaly
85.77319°
Mean motion
3.81735 °/min
Orbital period
94.31 mins
BSTAR
0.00039023
Loading maneuver chart data...
Computing Atmospheric mass density...
Loading historical data...
Loading historical data...
Loading historical data...
Loading historical data...
Loading historical data...
Loading historical data...
Loading historical data...

Documentation

Showing up to 5 results
|